GJZ 05

导读 | 星芒AI

GJZ 05 卫星是中国研制的一颗遥感卫星,主要用于国土资源调查、环境监测和灾害预警等领域。该卫星具备高分辨率成像能力,能够提供清晰的地表图像,支持国家在农业、林业、城市规划等方面的应用需求。GJZ 05 卫星的成功发射,提升了我国在遥感数据获取与应用方面的技术水平,为相关科学研究和实际应用提供了重要数据支持。

基本信息
目录编号:
62294
目录名称:
GJZ 05
国际标识:
2024-238E
轨道中心:
EARTH
卫星名称:
GJZ 05
卫星全名:
GJZ 05
卫星状态:
在轨 (已飞行323 天)
发射日期:
2024-12-12 UTC
国别 :
中国 (CN)
星等 :
--
轨道信息
数据来源 国际轨道数据 AOE轨道数据
星历时间 2025-10-31T13:58:32+0800
7小时前
查看轨道信息
2025-10-30T17:00:00+0800
1天前
查看轨道信息
半长轴 7359.236km 7359.238km
偏心率 0.0020016 0.0020249
轨道倾角 59.912° 59.912°
近地点辐角 145.037° 144.731°
升交点赤经 243.929° 246.573°
平近点角 215.196° 208.105°
近地点 966.37km 966.201km
远地点 995.832km 996.005km
周期 104.715分钟 104.715分钟
每日圈数 13.751615 13.751609
详细信息
使用方式:
暂无
2D轨道图
3D轨道图
轨道高度分析图
轨道倾角分析图
轨道综合分析图
查看轨道综合分析图